Temperature
21 21 21 20 20 20 19 19 19 19 18 18 18 18 18 17 17 17 17 17 17 17 17 17 17 17 17 17 17 17 17 17 17 17 17 17 17 17 17 17 17 17 17
21 21 21 21 20 20 20 19 19 19 19 18 18 18 18 18 17 17 17 17 17 17 17 17 17 17 17 17 17 17 17 17 17 17 17 17 17 17 17 17 17 17 17
22 22 21 21 21 20 20 20 19 19 19 19 18 18 18 18 18 17 17 17 17 17 17 17 17 17 17 17 17 17 17 17 17 17 16 16 16 16 16 17 16 16 16
23 22 22 21 21 21 20 20 20 19 19 19 18 18 18 18 18 18 17 17 17 17 17 17 17 17 17 17 17 17 17 17 17 17 17 16 16 16 16 16 16 16 16
23 22 22 22 22 21 21 20 20 19 19 19 19 18 18 18 18 18 17 17 17 17 17 17 17 17 17 17 17 17 17 17 17 16 16 16 16 16 16 16 16 16 16
23 23 22 22 22 21 21 21 20 20 20 19 19 19 19 18 18 18 18 17 17 17 17 17 17 17 17 17 16 16 17 17 16 16 16 16 16 16 16 16 16 15 15
23 23 23 23 22 22 21 21 21 20 20 20 19 19 19 18 18 18 18 17 17 17 17 17 17 17 17 16 16 16 16 16 16 16 16 16 16 16 16 16 15 15 15
23 23 23 23 23 22 22 21 21 21 20 20 20 19 19 19 18 18 18 17 17 17 17 17 17 17 17 16 16 16 16 16 16 16 16 16 16 16 16 16 15 15 14
24 24 23 23 23 23 22 22 21 21 20 20 20 19 19 19 18 18 18 17 17 17 17 17 17 17 16 16 16 16 16 16 16 16 16 16 16 16 16 15 15 15 14
24 24 24 23 23 23 22 22 21 21 21 20 20 19 19 19 18 18 18 17 17 17 17 17 17 16 16 16 16 16 16 16 16 16 16 16 16 15 15 15 15 15 15
24 24 24 24 23 23 22 22 22 21 21 20 20 19 19 19 18 18 18 18 17 17 17 16 16 16 16 16 16 16 16 16 16 16 16 16 15 15 15 15 15 15 14
25 24 24 24 23 23 23 22 22 21 21 20 20 19 19 19 18 18 18 17 17 17 17 16 16 16 16 16 16 16 15 15 15 15 15 15 15 15 15 15 14 14 14
24 24 24 24 23 23 23 22 22 21 21 20 20 19 19 19 19 18 18 17 17 17 16 16 16 16 16 16 16 15 15 15 15 15 15 15 15 15 14 14 14 14 14
24 24 24 24 23 23 23 22 22 21 21 20 20 20 19 19 18 18 18 17 17 17 16 16 16 16 15 15 15 15 15 15 15 14 14 14 14 14 14 14 14 13 13
24 24 24 24 23 23 23 22 22 21 21 20 20 20 19 19 18 18 17 17 17 17 16 16 16 15 15 15 15 15 15 15 14 14 14 14 14 14 14 13 13 13 13
24 24 24 24 23 23 23 23 22 21 21 20 20 20 19 19 18 18 17 17 17 17 16 16 16 15 15 15 15 15 14 14 14 14 13 13 13 13 13 13 13 13 12
24 24 24 24 24 23 23 22 22 21 21 20 20 20 19 19 18 18 17 17 17 16 16 16 15 15 15 15 14 14 14 14 14 13 13 13 13 13 13 12 12 12 12
24 24 24 24 23 23 23 22 22 21 21 20 20 19 19 19 18 18 17 17 16 16 16 15 15 15 15 14 14 14 14 13 13 13 13 13 12 12 12 12 12 12 11
25 24 24 24 23 23 22 22 21 21 20 20 20 19 19 18 18 18 17 17 16 16 15 15 15 14 14 14 14 13 13 13 13 12 12 12 12 12 12 12 11 11 11
24 24 23 23 23 22 22 21 21 20 20 20 19 19 18 18 17 17 17 16 16 15 15 15 14 14 14 14 13 13 13 12 12 12 12 12 11 11 11 11 11 11 11
23 23 23 22 22 22 21 21 20 20 19 19 18 18 17 17 17 16 16 16 15 15 15 14 14 14 13 13 13 13 12 12 12 12 11 11 11 11 11 11 11 10 10
23 22 22 22 21 21 20 20 20 19 19 18 18 17 17 17 16 16 15 15 15 15 14 14 14 13 13 13 13 12 12 12 11 11 11 11 11 11 10 10 10 10 10
22 22 21 21 20 20 20 19 19 19 18 18 17 17 16 16 16 15 15 15 14 14 14 14 13 13 13 12 12 12 12 11 11 11 11 10 10 10 10 10 10 10 10
21 21 20 20 20 19 19 18 18 18 18 17 17 16 16 16 15 15 14 14 14 14 14 13 13 13 12 12 12 11 11 11 11 11 10 10 10 10 10 10 10 10 9
20 20 20 19 19 18 18 18 18 17 17 17 16 16 15 15 15 15 14 14 14 13 13 13 13 13 12 12 12 12 11 11 11 10 10 10 10 10 10 10 9 9 9
19 19 19 19 18 18 18 17 17 17 16 16 16 15 15 15 14 14 14 13 13 13 13 12 12 12 12 12 11 11 11 11 10 10 10 10 10 10 10 9 9 9 9
Wind_Speed
5 5 5 5 5 4 4 3 3 3 3 2 2 1 1 0 0 1 3 3 3 3 3 1 1 1 1 2 2 1 1 1 1 2 1 2 1 0 1 1 2 2 3
5 6 6 5 5 5 4 4 4 3 3 2 2 2 1 1 1 1 1 2 2 3 2 2 1 1 1 2 2 2 2 1 1 2 1 1 2 2 1 1 1 2 1
9 8 7 7 6 5 5 5 4 4 3 3 2 2 2 2 1 1 1 1 2 2 2 2 2 2 2 3 3 3 4 2 1 2 3 2 2 1 2 1 1 1 1
9 9 9 8 7 7 5 4 4 4 3 3 3 3 2 1 1 1 1 1 0 1 1 2 2 2 2 3 3 3 3 3 3 1 2 2 3 2 1 2 2 2 1
10 10 10 9 8 7 6 5 4 3 3 4 4 3 2 1 1 0 1 1 1 1 1 1 1 1 2 2 2 2 3 3 3 2 2 1 1 2 2 2 1 1 1
10 9 8 7 7 6 6 5 5 4 4 4 4 4 3 2 1 0 0 1 1 1 1 0 1 1 1 2 2 2 3 3 3 3 3 3 2 3 3 3 1 1 1
10 10 9 9 9 8 7 6 6 5 4 4 4 4 4 3 2 2 1 1 1 1 1 0 0 0 1 1 1 1 1 2 2 3 3 3 3 2 3 3 2 1 1
9 10 11 10 10 10 9 8 7 6 5 5 4 3 3 2 2 2 1 1 1 1 1 0 0 0 0 0 0 0 0 0 1 2 2 2 2 2 3 3 3 1 0
9 9 9 10 10 10 10 10 8 6 5 5 4 3 3 3 2 2 1 1 1 1 0 0 1 1 1 1 1 1 1 1 0 1 1 1 1 1 1 2 3 3 2
7 8 8 8 8 8 8 8 8 7 6 5 5 4 3 3 2 2 1 1 0 0 1 1 1 1 2 2 2 2 2 2 1 1 2 1 0 0 0 1 1 2 3
8 8 7 7 7 7 8 8 7 7 6 5 4 4 3 3 3 2 2 1 1 1 1 1 1 2 2 2 2 2 2 2 2 2 2 2 1 1 1 1 1 2 2
7 6 7 7 7 7 7 7 7 7 6 6 5 5 4 3 3 2 2 1 1 1 2 2 2 2 2 2 2 2 2 3 2 2 2 2 2 3 1 1 2 2 2
6 6 6 7 7 7 7 6 6 6 6 6 5 4 4 4 3 2 2 2 2 2 2 3 2 2 2 2 2 3 3 3 2 2 2 2 3 2 2 2 2 2 3
7 8 7 7 7 7 7 7 6 6 6 6 6 5 4 4 3 3 2 2 3 3 2 2 2 2 2 2 3 3 3 3 3 2 2 2 2 2 2 3 3 4 4
7 8 9 8 7 7 7 7 6 6 6 6 6 5 4 4 4 3 3 3 3 3 3 3 3 2 2 2 3 3 4 4 3 3 3 3 5 5 4 3 3 4 4
9 8 8 8 8 8 8 7 6 6 6 6 5 4 4 4 4 4 3 3 3 3 3 3 3 3 2 3 4 4 4 4 4 3 4 5 6 7 7 7 7 6 5
10 10 9 9 8 8 8 8 7 6 7 6 5 5 5 5 5 5 4 3 3 3 3 3 3 3 3 5 5 6 4 4 3 3 3 4 5 6 6 8 8 7 6
9 9 9 8 6 6 7 8 8 7 7 6 5 5 5 5 5 5 4 3 3 3 2 2 3 3 3 4 5 7 5 5 4 3 3 4 4 4 5 6 6 5 5
8 8 8 8 8 8 9 9 8 7 7 6 6 5 5 5 4 5 4 3 3 3 2 3 3 3 2 4 5 5 4 5 4 4 4 4 4 4 6 6 5 5 4
5 7 8 8 8 9 10 10 8 7 7 6 5 5 5 5 5 4 4 3 3 3 3 3 3 3 2 3 5 5 4 4 3 3 4 4 4 4 5 4 4 3 2
6 8 9 8 8 9 10 9 8 7 5 5 5 5 5 5 4 4 4 4 4 4 4 3 3 3 2 3 4 5 3 3 3 2 2 1 3 4 4 4 3 3 2
7 8 8 7 6 8 9 8 7 6 6 7 6 5 5 4 4 5 4 4 5 5 3 2 2 1 1 2 3 5 4 4 3 2 1 1 3 3 4 3 3 5 4
7 7 8 7 6 6 8 8 7 7 7 7 6 5 5 4 4 5 6 4 4 4 3 2 2 1 0 1 2 4 4 4 3 2 2 2 3 3 3 3 4 4 2
6 7 8 8 6 5 5 6 7 7 8 7 5 5 5 4 4 3 3 4 3 4 3 3 2 1 1 1 1 1 2 2 2 1 2 3 4 3 3 2 2 1 1
5 7 8 8 6 5 5 5 6 7 8 7 5 5 4 4 3 3 2 2 2 4 4 4 4 3 3 3 4 4 2 3 3 3 2 2 1 1 1 1 1 1 1
5 5 6 6 6 6 5 5 6 7 7 6 5 4 4 3 3 3 2 2 1 2 3 3 3 3 3 3 4 5 5 5 6 4 2 2 2 2 2 2 1 1 1
Wind_Direction
199 171 171 163 158 163 161 169 169 164 142 124 132 137 190 235 272 248 237 227 216 199 181 182 193 182 186 198 177 150 139 119 120 95 28 1 357 320 264 249 226 224 227
183 175 171 166 174 183 181 179 182 172 168 160 149 154 146 175 219 278 280 227 217 210 196 185 203 203 188 191 181 167 167 184 148 136 111 353 352 10 360 329 243 239 212
192 186 182 181 179 189 193 191 184 176 175 160 121 91 70 41 28 2 320 266 215 217 214 210 198 202 193 207 208 187 180 192 210 180 158 162 230 314 356 12 14 17 57
186 183 184 186 191 193 188 181 174 170 169 154 144 143 149 180 242 257 273 312 21 254 239 221 206 197 193 208 220 202 194 183 205 208 203 188 172 178 304 350 16 36 35
187 184 187 190 190 182 177 176 167 166 161 153 156 150 158 195 238 328 352 2 4 354 306 241 209 202 200 211 222 214 206 198 199 197 181 172 164 185 192 252 321 18 19
188 185 182 175 176 171 169 167 164 168 159 156 158 164 173 187 184 236 357 341 336 334 336 297 197 198 207 221 228 223 216 214 208 203 192 182 184 190 189 212 228 284 347
180 179 177 179 180 178 177 171 168 177 169 162 171 179 184 181 191 212 223 247 297 301 314 307 165 186 234 228 228 216 229 219 213 210 211 204 206 185 173 177 195 222 320
180 184 188 186 185 183 178 174 176 183 176 173 182 183 178 183 205 211 211 228 253 271 281 172 165 144 173 100 78 58 257 172 209 204 193 190 202 181 178 175 169 177 207
185 187 187 185 184 183 182 180 180 183 182 179 172 173 176 181 195 200 207 240 272 277 14 126 101 64 63 76 102 75 50 81 135 143 134 146 218 198 200 187 183 176 191
189 187 185 184 183 183 178 173 175 181 182 176 178 180 180 185 187 176 187 205 255 61 89 69 73 75 71 79 93 86 61 73 50 72 92 80 33 111 147 182 201 193 178
192 188 184 179 174 171 170 172 175 174 174 177 171 167 173 175 171 177 200 198 155 109 124 118 97 88 82 84 96 90 84 82 57 50 69 48 41 63 66 104 116 118 131
182 176 170 165 169 175 173 172 175 178 180 173 166 172 175 166 164 173 195 175 139 119 122 116 103 94 85 84 99 102 93 94 83 70 71 46 55 56 56 97 112 117 122
166 154 155 164 172 176 171 174 173 174 170 163 162 165 169 166 167 171 169 138 125 111 105 106 104 97 94 95 98 108 106 100 93 83 81 64 74 63 62 85 96 103 110
165 162 166 171 171 168 166 169 170 162 160 157 156 160 166 164 158 144 132 124 118 111 110 105 106 104 98 98 105 106 107 99 84 74 74 74 84 88 88 88 93 105 107
173 176 177 176 170 163 162 166 167 161 159 156 160 164 155 143 131 122 117 110 105 107 107 106 99 99 102 109 121 119 112 105 90 70 61 68 78 84 89 99 107 112 115
187 184 176 172 173 170 169 166 166 158 149 151 156 145 138 137 133 129 117 105 97 94 89 91 96 89 88 98 112 117 109 102 94 80 64 69 69 78 78 85 92 103 120
187 184 182 181 180 176 169 164 156 145 144 148 147 146 144 144 142 140 128 125 121 109 98 96 96 90 75 90 107 109 109 99 88 85 80 78 73 76 82 77 77 76 82
183 183 179 178 176 162 150 142 140 142 143 141 141 147 147 148 145 140 146 151 143 136 129 114 105 97 76 91 106 110 101 93 84 82 92 94 82 82 93 89 77 67 60
182 176 168 164 157 151 146 140 141 144 146 149 153 157 147 147 152 153 154 153 144 135 129 119 113 105 78 90 105 111 101 91 78 70 77 91 88 84 98 97 88 72 54
151 147 143 140 148 149 142 141 149 155 162 165 161 150 141 155 165 165 156 142 136 138 128 115 111 110 93 98 114 118 112 103 90 70 61 69 87 92 107 111 109 95 64
137 138 138 145 153 147 145 150 154 167 163 147 140 138 144 151 153 148 143 138 129 119 115 113 96 91 91 106 120 129 126 132 119 102 77 55 81 88 104 120 127 145 127
134 135 134 134 140 146 149 152 164 161 140 138 139 142 144 141 143 141 138 134 129 122 114 114 107 86 84 115 139 140 140 142 136 144 150 128 104 97 102 115 119 115 105
140 136 133 132 135 144 151 159 162 147 141 139 143 139 134 130 138 146 146 141 139 141 147 155 161 175 113 81 125 141 145 149 147 162 160 140 117 102 94 101 113 114 114
140 135 130 133 137 138 143 148 144 140 139 144 149 146 143 136 130 133 147 154 162 165 168 177 189 195 184 185 160 146 145 135 131 124 107 103 95 89 84 83 93 113 142
136 139 143 147 147 143 139 136 141 143 145 149 153 150 149 148 143 141 150 175 196 196 189 195 189 184 206 220 190 175 182 187 175 136 103 93 99 100 72 55 52 70 107
137 140 145 146 145 141 139 136 145 153 152 155 159 161 161 157 154 150 123 73 124 141 171 184 184 209 218 199 184 192 193 183 160 139 147 172 182 193 200 202 204 188 193
Height
1544 1545 1546 1548 1550 1551 1551 1551 1552 1553 1553 1554 1555 1555 1555 1556 1556 1557 1557 1557 1558 1558 1559 1560 1560 1561 1561 1562 1563 1563 1563 1564 1564 1564 1564 1564 1565 1565 1565 1565 1565 1565 1566
1542 1543 1545 1547 1549 1550 1550 1551 1551 1552 1553 1554 1554 1555 1555 1555 1556 1556 1556 1557 1557 1558 1558 1558 1559 1559 1560 1561 1561 1562 1562 1562 1563 1563 1563 1563 1564 1563 1563 1563 1563 1563 1564
1538 1541 1543 1545 1547 1548 1550 1550 1551 1552 1552 1553 1554 1554 1554 1555 1555 1556 1556 1556 1556 1556 1557 1557 1558 1558 1558 1559 1560 1560 1560 1561 1561 1562 1562 1562 1562 1562 1562 1562 1562 1562 1562
1535 1538 1541 1543 1545 1547 1549 1550 1551 1551 1552 1552 1553 1553 1554 1554 1555 1555 1555 1555 1555 1556 1556 1556 1556 1556 1557 1557 1558 1558 1559 1559 1559 1560 1560 1561 1561 1561 1560 1561 1561 1561 1561
1533 1535 1538 1541 1543 1546 1547 1549 1550 1550 1551 1552 1552 1553 1553 1554 1554 1554 1555 1555 1555 1555 1555 1555 1555 1555 1555 1556 1556 1556 1557 1557 1557 1557 1558 1558 1558 1559 1559 1558 1559 1559 1559
1530 1533 1536 1539 1542 1544 1546 1547 1549 1549 1550 1551 1552 1552 1553 1553 1554 1554 1554 1554 1554 1554 1554 1554 1554 1554 1554 1554 1554 1554 1554 1555 1555 1555 1555 1556 1556 1556 1556 1556 1556 1556 1557
1527 1530 1533 1536 1539 1542 1544 1546 1547 1548 1549 1550 1551 1552 1552 1552 1553 1553 1553 1553 1553 1553 1552 1552 1552 1552 1552 1552 1552 1552 1552 1552 1552 1552 1553 1553 1554 1554 1554 1554 1554 1554 1555
1525 1528 1531 1534 1537 1540 1542 1544 1546 1547 1548 1549 1550 1551 1551 1552 1552 1552 1552 1552 1552 1551 1551 1551 1551 1551 1551 1551 1551 1550 1550 1550 1550 1550 1551 1551 1551 1551 1552 1552 1552 1552 1553
1523 1526 1529 1532 1535 1538 1541 1543 1545 1546 1547 1548 1549 1550 1550 1551 1551 1551 1551 1551 1551 1550 1550 1550 1549 1549 1549 1549 1549 1548 1548 1548 1548 1548 1548 1549 1549 1549 1549 1550 1550 1551 1550
1522 1524 1528 1531 1534 1537 1539 1541 1543 1545 1547 1548 1548 1549 1550 1550 1550 1550 1550 1550 1550 1550 1549 1549 1548 1548 1548 1548 1547 1547 1547 1546 1546 1546 1546 1547 1547 1547 1547 1547 1548 1548 1549
1519 1523 1526 1529 1533 1536 1538 1540 1542 1543 1545 1547 1548 1548 1549 1549 1550 1550 1549 1549 1549 1549 1548 1548 1548 1547 1547 1547 1546 1546 1545 1545 1545 1545 1545 1545 1545 1545 1545 1546 1546 1546 1547
1518 1522 1525 1528 1531 1534 1536 1538 1540 1542 1544 1546 1547 1548 1548 1548 1549 1549 1549 1548 1548 1548 1548 1547 1547 1547 1546 1546 1545 1545 1545 1544 1544 1544 1544 1544 1544 1544 1544 1544 1544 1545 1545
1517 1520 1523 1526 1529 1532 1534 1537 1539 1541 1543 1544 1545 1546 1547 1547 1547 1548 1548 1548 1547 1547 1547 1547 1546 1546 1546 1545 1545 1545 1544 1544 1544 1543 1543 1543 1543 1543 1543 1543 1543 1543 1544
1515 1518 1521 1524 1526 1529 1532 1535 1537 1539 1541 1543 1544 1544 1545 1545 1546 1546 1547 1547 1546 1546 1546 1546 1546 1545 1545 1545 1545 1544 1544 1544 1543 1543 1543 1543 1543 1543 1543 1542 1543 1543 1543
1513 1516 1518 1521 1524 1527 1530 1533 1535 1537 1539 1540 1542 1542 1543 1544 1544 1545 1545 1546 1545 1545 1545 1545 1545 1544 1544 1544 1544 1544 1543 1543 1543 1543 1542 1542 1542 1542 1542 1542 1542 1542 1542
1510 1513 1516 1519 1522 1525 1528 1531 1534 1536 1538 1539 1541 1542 1542 1542 1543 1544 1544 1544 1544 1544 1544 1544 1544 1543 1543 1543 1543 1543 1543 1542 1542 1542 1542 1542 1542 1542 1542 1542 1542 1542 1542
1506 1510 1513 1516 1520 1523 1526 1529 1532 1534 1536 1538 1539 1540 1540 1540 1541 1542 1543 1543 1543 1543 1543 1543 1543 1542 1542 1542 1542 1542 1542 1542 1542 1542 1542 1542 1542 1542 1542 1542 1542 1542 1542
1504 1507 1511 1515 1518 1521 1524 1527 1530 1532 1534 1536 1537 1538 1539 1539 1539 1540 1541 1541 1542 1542 1542 1542 1542 1542 1542 1542 1542 1542 1541 1541 1541 1541 1541 1542 1542 1542 1542 1542 1542 1542 1542
1501 1505 1508 1512 1516 1519 1522 1525 1528 1530 1531 1533 1535 1536 1536 1538 1538 1539 1539 1540 1540 1540 1540 1540 1541 1541 1541 1541 1541 1541 1541 1541 1541 1541 1542 1542 1542 1542 1543 1543 1543 1542 1543
1500 1503 1507 1510 1513 1516 1520 1523 1525 1527 1529 1531 1532 1534 1535 1536 1537 1537 1538 1538 1538 1539 1539 1539 1539 1539 1540 1540 1540 1540 1540 1540 1541 1541 1542 1542 1542 1543 1543 1543 1543 1543 1543
1499 1502 1505 1508 1511 1514 1518 1520 1523 1525 1528 1529 1531 1532 1533 1534 1534 1534 1536 1537 1537 1537 1537 1537 1538 1538 1538 1539 1539 1540 1540 1540 1540 1541 1541 1542 1542 1543 1543 1543 1543 1544 1544
1497 1500 1503 1506 1509 1513 1515 1517 1520 1523 1525 1527 1528 1530 1532 1532 1533 1533 1534 1535 1535 1536 1536 1536 1536 1537 1537 1538 1538 1538 1539 1540 1540 1540 1541 1542 1542 1543 1543 1543 1543 1544 1544
1496 1498 1501 1505 1508 1510 1513 1516 1518 1521 1523 1525 1526 1528 1530 1531 1532 1532 1533 1534 1534 1534 1534 1535 1535 1535 1536 1537 1537 1537 1538 1539 1539 1540 1541 1541 1542 1542 1543 1543 1543 1543 1543
1496 1497 1500 1503 1506 1509 1512 1515 1517 1519 1521 1523 1525 1526 1527 1528 1529 1530 1531 1532 1532 1532 1533 1533 1534 1535 1535 1536 1536 1537 1538 1538 1539 1539 1540 1541 1541 1542 1542 1542 1542 1542 1542
1495 1497 1499 1501 1504 1508 1510 1513 1515 1517 1518 1520 1523 1524 1525 1526 1527 1528 1529 1530 1530 1531 1532 1532 1533 1533 1534 1535 1535 1536 1537 1537 1538 1539 1539 1540 1540 1541 1541 1541 1541 1541 1541
1495 1497 1499 1501 1502 1505 1509 1510 1513 1516 1517 1518 1520 1521 1523 1524 1525 1526 1526 1527 1529 1529 1530 1531 1531 1532 1533 1534 1534 1535 1535 1536 1537 1537 1538 1538 1539 1539 1539 1539 1540 1540 1540